User: anonymous   Login
Location: Les Jeannots
(43.2262°N, 5.5774°E)
Time: 11:42:18
(UTC+00:00)
Language:

Cosmos 1500 Rocket - Orbit

View from above orbital plane
View from above orbital plane
View from above satellite
View from above satellite

Ground track
Ground track

The orbit data is extracted from the following two-line orbital elements,

1 14373U 83099B   20262.91367913 +.00000044 +00000-0 +24583-5 0  9993
2 14373 082.5414 212.5753 0018595 259.6988 156.3619 14.83796712976195
Epoch (UTC): 18 September 2020 21:55:41
Eccentricity: 0.0018595
inclination: 82.5414°
perigee height: 604 km
apogee height: 630 km
right ascension of ascending node: 212.5753°
argument of perigee: 259.6988°
revolutions per day: 14.83796712
mean anomaly at epoch: 156.3619°
orbit number at epoch: 97619

The dashed part of the orbit path shows where the satellite is in the earth's shadow,  

DLR